Location: LDNL
(36.4545°S, 141.6685°E)
Time: 04:37:01
(UTC+11:00)

Vanguard 2 - Pass Details

Date: 17 August 2022
Orbit: 552 x 2934 km, 32.9° (Epoch: 06 October)

Event Time Altitude Azimuth Distance (km) Brightness Sun altitude
Rises 14:04:18 0° 323° (NW) 6,282 13.1 36.1°
Reaches altitude 10° 14:08:33 10° 329° (NNW) 5,479 13.3 35.7°
Maximum altitude 14:24:09 42° 33° (NNE) 3,732 11.7 34.1°
Drops below altitude 10° 14:39:02 10° 96° (E) 5,283 11.5 32.5°
Sets 14:42:59 0° 102° (ESE) 6,050 11.7 32.0°
